Year,Month,Day,Hour,Minute,Value (Times are PST for temperature in C)
2012,09,14,00,00,15.40
2012,09,14,00,01,15.40
2012,09,14,00,02,15.40
2012,09,14,00,03,15.30
2012,09,14,00,04,15.30
2012,09,14,00,05,15.30
2012,09,14,00,06,15.20
2012,09,14,00,07,15.20
2012,09,14,00,08,15.20
2012,09,14,00,09,15.20
2012,09,14,00,10,15.20
2012,09,14,00,11,15.20
2012,09,14,00,12,15.20
2012,09,14,00,13,15.20
2012,09,14,00,14,15.20
2012,09,14,00,15,15.20
2012,09,14,00,16,15.20
2012,09,14,00,17,15.20
2012,09,14,00,18,15.20
2012,09,14,00,19,15.20
2012,09,14,00,20,15.20
2012,09,14,00,21,15.20
2012,09,14,00,22,15.20
2012,09,14,00,23,15.20
2012,09,14,00,24,15.20
2012,09,14,00,25,15.20
2012,09,14,00,26,15.20
2012,09,14,00,27,15.20
2012,09,14,00,28,15.20
2012,09,14,00,29,15.20
2012,09,14,00,30,15.20
2012,09,14,00,31,15.10
2012,09,14,00,32,15.10
2012,09,14,00,33,15.10
2012,09,14,00,34,15.10
2012,09,14,00,35,15.10
2012,09,14,00,36,15.00
2012,09,14,00,37,15.00
2012,09,14,00,38,15.00
2012,09,14,00,39,15.00
2012,09,14,00,40,15.00
2012,09,14,00,41,15.00
2012,09,14,00,42,15.00
2012,09,14,00,43,15.00
2012,09,14,00,44,15.00
2012,09,14,00,45,15.00
2012,09,14,00,46,15.00
2012,09,14,00,47,15.00
2012,09,14,00,48,15.00
2012,09,14,00,49,15.00
2012,09,14,00,50,15.00
2012,09,14,00,51,15.00
2012,09,14,00,52,15.00
2012,09,14,00,53,15.00
2012,09,14,00,54,15.00
2012,09,14,00,55,15.00
2012,09,14,00,56,15.00
2012,09,14,00,57,15.00
2012,09,14,00,58,15.00
2012,09,14,00,59,15.00
2012,09,14,01,00,14.90
2012,09,14,01,01,14.90
2012,09,14,01,02,14.90
2012,09,14,01,03,14.80
2012,09,14,01,04,14.80
2012,09,14,01,05,14.80
2012,09,14,01,06,14.80
2012,09,14,01,07,14.80
2012,09,14,01,08,14.80
2012,09,14,01,09,14.80
2012,09,14,01,10,14.80
2012,09,14,01,11,14.70
2012,09,14,01,12,14.70
2012,09,14,01,13,14.70
2012,09,14,01,14,14.70
2012,09,14,01,15,14.70
2012,09,14,01,16,14.70
2012,09,14,01,17,14.70
2012,09,14,01,18,14.70
2012,09,14,01,19,14.70
2012,09,14,01,20,14.70
2012,09,14,01,21,14.70
2012,09,14,01,22,14.70
2012,09,14,01,23,14.70
2012,09,14,01,24,14.70
2012,09,14,01,25,14.70
2012,09,14,01,26,14.70
2012,09,14,01,27,14.70
2012,09,14,01,28,14.70
2012,09,14,01,29,14.70
2012,09,14,01,30,14.60
2012,09,14,01,31,14.60
2012,09,14,01,32,14.60
2012,09,14,01,33,14.60
2012,09,14,01,34,14.60
2012,09,14,01,35,14.60
2012,09,14,01,36,14.60
2012,09,14,01,37,14.60
2012,09,14,01,38,14.60
2012,09,14,01,39,14.60
2012,09,14,01,40,14.60
2012,09,14,01,41,14.60
2012,09,14,01,42,14.50
2012,09,14,01,43,14.50
2012,09,14,01,44,14.50
2012,09,14,01,45,14.40
2012,09,14,01,46,14.40
2012,09,14,01,47,14.40
2012,09,14,01,48,14.40
2012,09,14,01,49,14.40
2012,09,14,01,50,14.40
2012,09,14,01,51,14.40
2012,09,14,01,52,14.30
2012,09,14,01,53,14.30
2012,09,14,01,54,14.30
2012,09,14,01,55,14.20
2012,09,14,01,56,14.20
2012,09,14,01,57,14.20
2012,09,14,01,58,14.10
2012,09,14,01,59,14.10
2012,09,14,02,00,14.10
2012,09,14,02,01,14.10
2012,09,14,02,02,14.00
2012,09,14,02,03,14.00
2012,09,14,02,04,14.00
2012,09,14,02,05,14.00
2012,09,14,02,06,14.00
2012,09,14,02,07,14.00
2012,09,14,02,08,14.00
2012,09,14,02,09,14.00
2012,09,14,02,10,13.90
2012,09,14,02,11,13.90
2012,09,14,02,12,13.90
2012,09,14,02,13,13.90
2012,09,14,02,14,13.80
2012,09,14,02,15,13.80
2012,09,14,02,16,13.80
2012,09,14,02,17,13.80
2012,09,14,02,18,13.80
2012,09,14,02,19,13.80
2012,09,14,02,20,13.80
2012,09,14,02,21,13.80
2012,09,14,02,22,13.90
2012,09,14,02,23,14.00
2012,09,14,02,24,14.00
2012,09,14,02,25,14.10
2012,09,14,02,26,14.20
2012,09,14,02,27,14.30
2012,09,14,02,28,14.40
2012,09,14,02,29,14.50
2012,09,14,02,30,14.60
2012,09,14,02,31,14.70
2012,09,14,02,32,14.70
2012,09,14,02,33,14.80
2012,09,14,02,34,14.80
2012,09,14,02,35,14.80
2012,09,14,02,36,14.90
2012,09,14,02,37,14.90
2012,09,14,02,38,15.00
2012,09,14,02,39,15.00
2012,09,14,02,40,15.00
2012,09,14,02,41,15.00
2012,09,14,02,42,15.00
2012,09,14,02,43,15.00
2012,09,14,02,44,15.00
2012,09,14,02,45,15.00
2012,09,14,02,46,15.00
2012,09,14,02,47,14.90
2012,09,14,02,48,14.90
2012,09,14,02,49,14.90
2012,09,14,02,50,14.80
2012,09,14,02,51,14.80
2012,09,14,02,52,14.80
2012,09,14,02,53,14.70
2012,09,14,02,54,14.70
2012,09,14,02,55,14.70
2012,09,14,02,56,14.60
2012,09,14,02,57,14.60
2012,09,14,02,58,14.60
2012,09,14,02,59,14.50
2012,09,14,03,00,14.50
2012,09,14,03,01,14.40
2012,09,14,03,02,14.40
2012,09,14,03,03,14.40
2012,09,14,03,04,14.30
2012,09,14,03,05,14.30
2012,09,14,03,06,14.30
2012,09,14,03,07,14.30
2012,09,14,03,08,14.30
2012,09,14,03,09,14.30
2012,09,14,03,10,14.20
2012,09,14,03,11,14.20
2012,09,14,03,12,14.20
2012,09,14,03,13,14.20
2012,09,14,03,14,14.20
2012,09,14,03,15,14.20
2012,09,14,03,16,14.10
2012,09,14,03,17,14.10
2012,09,14,03,18,14.10
2012,09,14,03,19,14.10
2012,09,14,03,20,14.10
2012,09,14,03,21,14.10
2012,09,14,03,22,14.00
2012,09,14,03,23,14.00
2012,09,14,03,24,14.00
2012,09,14,03,25,14.00
2012,09,14,03,26,13.90
2012,09,14,03,27,13.90
2012,09,14,03,28,13.90
2012,09,14,03,29,13.90
2012,09,14,03,30,13.90
2012,09,14,03,31,13.90
2012,09,14,03,32,13.90
2012,09,14,03,33,13.90
2012,09,14,03,34,13.90
2012,09,14,03,35,13.90
2012,09,14,03,36,13.90
2012,09,14,03,37,13.90
2012,09,14,03,38,13.90
2012,09,14,03,39,13.90
2012,09,14,03,40,13.90
2012,09,14,03,41,13.90
2012,09,14,03,42,13.90
2012,09,14,03,43,14.00
2012,09,14,03,44,14.00
2012,09,14,03,45,14.10
2012,09,14,03,46,14.10
2012,09,14,03,47,14.20
2012,09,14,03,48,14.20
2012,09,14,03,49,14.30
2012,09,14,03,50,14.30
2012,09,14,03,51,14.30
2012,09,14,03,52,14.40
2012,09,14,03,53,14.40
2012,09,14,03,54,14.50
2012,09,14,03,55,14.50
2012,09,14,03,56,14.50
2012,09,14,03,57,14.60
2012,09,14,03,58,14.60
2012,09,14,03,59,14.60
2012,09,14,04,00,14.60
2012,09,14,04,01,14.70
2012,09,14,04,02,14.70
2012,09,14,04,03,14.70
2012,09,14,04,04,14.70
2012,09,14,04,05,14.70
2012,09,14,04,06,14.70
2012,09,14,04,07,14.80
2012,09,14,04,08,14.80
2012,09,14,04,09,14.80
2012,09,14,04,10,14.80
2012,09,14,04,11,14.80
2012,09,14,04,12,14.80
2012,09,14,04,13,14.80
2012,09,14,04,14,14.80
2012,09,14,04,15,14.80
2012,09,14,04,16,14.80
2012,09,14,04,17,14.90
2012,09,14,04,18,14.90
2012,09,14,04,19,14.90
2012,09,14,04,20,14.90
2012,09,14,04,21,14.90
2012,09,14,04,22,15.00
2012,09,14,04,23,15.00
2012,09,14,04,24,15.00
2012,09,14,04,25,15.00
2012,09,14,04,26,15.00
2012,09,14,04,27,15.00
2012,09,14,04,28,15.00
2012,09,14,04,29,15.00
2012,09,14,04,30,15.00
2012,09,14,04,31,15.00
2012,09,14,04,32,15.00
2012,09,14,04,33,14.90
2012,09,14,04,34,14.90
2012,09,14,04,35,14.90
2012,09,14,04,36,14.90
2012,09,14,04,37,14.90
2012,09,14,04,38,14.90
2012,09,14,04,39,14.90
2012,09,14,04,40,14.90
2012,09,14,04,41,14.90
2012,09,14,04,42,14.90
2012,09,14,04,43,14.90
2012,09,14,04,44,14.90
2012,09,14,04,45,14.80
2012,09,14,04,46,14.80
2012,09,14,04,47,14.80
2012,09,14,04,48,14.80
2012,09,14,04,49,14.80
2012,09,14,04,50,14.80
2012,09,14,04,51,14.80
2012,09,14,04,52,14.80
2012,09,14,04,53,14.80
2012,09,14,04,54,14.80
2012,09,14,04,55,14.80
2012,09,14,04,56,14.80
2012,09,14,04,57,14.80
2012,09,14,04,58,14.80
2012,09,14,04,59,14.70
2012,09,14,05,00,14.70
2012,09,14,05,01,14.70
2012,09,14,05,02,14.70
2012,09,14,05,03,14.70
2012,09,14,05,04,14.70
2012,09,14,05,05,14.60
2012,09,14,05,06,14.60
2012,09,14,05,07,14.60
2012,09,14,05,08,14.60
2012,09,14,05,09,14.60
2012,09,14,05,10,14.60
2012,09,14,05,11,14.50
2012,09,14,05,12,14.60
2012,09,14,05,13,14.60
2012,09,14,05,14,14.60
2012,09,14,05,15,14.60
2012,09,14,05,16,14.60
2012,09,14,05,17,14.60
2012,09,14,05,18,14.60
2012,09,14,05,19,14.50
2012,09,14,05,20,14.50
2012,09,14,05,21,14.50
2012,09,14,05,22,14.50
2012,09,14,05,23,14.50
2012,09,14,05,24,14.50
2012,09,14,05,25,14.50
2012,09,14,05,26,14.50
2012,09,14,05,27,14.50
2012,09,14,05,28,14.50
2012,09,14,05,29,14.50
2012,09,14,05,30,14.50
2012,09,14,05,31,14.50
2012,09,14,05,32,14.40
2012,09,14,05,33,14.40
2012,09,14,05,34,14.50
2012,09,14,05,35,14.50
2012,09,14,05,36,14.60
2012,09,14,05,37,14.60
2012,09,14,05,38,14.60
2012,09,14,05,39,14.60
2012,09,14,05,40,14.60
2012,09,14,05,41,14.60
2012,09,14,05,42,14.60
2012,09,14,05,43,14.60
2012,09,14,05,44,14.60
2012,09,14,05,45,14.60
2012,09,14,05,46,14.60
2012,09,14,05,47,14.60
2012,09,14,05,48,14.50
2012,09,14,05,49,14.50
2012,09,14,05,50,14.50
2012,09,14,05,51,14.50
2012,09,14,05,52,14.50
2012,09,14,05,53,14.50
2012,09,14,05,54,14.50
2012,09,14,05,55,14.40
2012,09,14,05,56,14.40
2012,09,14,05,57,14.40
2012,09,14,05,58,14.40
2012,09,14,05,59,14.40
2012,09,14,06,00,14.40
2012,09,14,06,01,14.40
2012,09,14,06,02,14.40
2012,09,14,06,03,14.40
2012,09,14,06,04,14.40
2012,09,14,06,05,14.40
2012,09,14,06,06,14.40
2012,09,14,06,07,14.40
2012,09,14,06,08,14.30
2012,09,14,06,09,14.30
2012,09,14,06,10,14.30
2012,09,14,06,11,14.30
2012,09,14,06,12,14.30
2012,09,14,06,13,14.30
2012,09,14,06,14,14.30
2012,09,14,06,15,14.30
2012,09,14,06,16,14.30
2012,09,14,06,17,14.30
2012,09,14,06,18,14.30
2012,09,14,06,19,14.30
2012,09,14,06,20,14.20
2012,09,14,06,21,14.20
2012,09,14,06,22,14.20
2012,09,14,06,23,14.20
2012,09,14,06,24,14.20
2012,09,14,06,25,14.20
2012,09,14,06,26,14.10
2012,09,14,06,27,14.10
2012,09,14,06,28,14.10
2012,09,14,06,29,14.10
2012,09,14,06,30,14.10
2012,09,14,06,31,14.10
2012,09,14,06,32,14.10
2012,09,14,06,33,14.00
2012,09,14,06,34,14.00
2012,09,14,06,35,14.00
2012,09,14,06,36,14.00
2012,09,14,06,37,14.00
2012,09,14,06,38,14.00
2012,09,14,06,39,14.00
2012,09,14,06,40,14.00
2012,09,14,06,41,14.00
2012,09,14,06,42,14.00
2012,09,14,06,43,14.00
2012,09,14,06,44,14.00
2012,09,14,06,45,14.00
2012,09,14,06,46,14.10
2012,09,14,06,47,14.10
2012,09,14,06,48,14.10
2012,09,14,06,49,14.10
2012,09,14,06,50,14.10
2012,09,14,06,51,14.10
2012,09,14,06,52,14.10
2012,09,14,06,53,14.10
2012,09,14,06,54,14.10
2012,09,14,06,55,14.00
2012,09,14,06,56,14.00
2012,09,14,06,57,14.00
2012,09,14,06,58,14.00
2012,09,14,06,59,14.00
2012,09,14,07,00,14.00
2012,09,14,07,01,14.00
2012,09,14,07,02,14.00
2012,09,14,07,03,14.00
2012,09,14,07,04,14.00
2012,09,14,07,05,13.90
2012,09,14,07,06,13.90
2012,09,14,07,07,13.90
2012,09,14,07,08,13.90
2012,09,14,07,09,13.90
2012,09,14,07,10,13.90
2012,09,14,07,11,13.90
2012,09,14,07,12,13.80
2012,09,14,07,13,13.80
2012,09,14,07,14,13.80
2012,09,14,07,15,13.80
2012,09,14,07,16,13.80
2012,09,14,07,17,13.80
2012,09,14,07,18,13.80
2012,09,14,07,19,13.80
2012,09,14,07,20,13.80
2012,09,14,07,21,13.80
2012,09,14,07,22,13.80
2012,09,14,07,23,13.80
2012,09,14,07,24,13.80
2012,09,14,07,25,13.80
2012,09,14,07,26,13.80
2012,09,14,07,27,13.80
2012,09,14,07,28,13.80
2012,09,14,07,29,13.80
2012,09,14,07,30,13.80
2012,09,14,07,31,13.80
2012,09,14,07,32,13.80
2012,09,14,07,33,13.80
2012,09,14,07,34,13.80
2012,09,14,07,35,13.80
2012,09,14,07,36,13.80
2012,09,14,07,37,13.80
2012,09,14,07,38,13.80
2012,09,14,07,39,13.80
2012,09,14,07,40,13.80
2012,09,14,07,41,13.80
2012,09,14,07,42,13.80
2012,09,14,07,43,13.80
2012,09,14,07,44,13.80
2012,09,14,07,45,13.80
2012,09,14,07,46,13.80
2012,09,14,07,47,13.80
2012,09,14,07,48,13.90
2012,09,14,07,49,13.90
2012,09,14,07,50,13.90
2012,09,14,07,51,13.90
2012,09,14,07,52,13.90
2012,09,14,07,53,14.00
2012,09,14,07,54,14.00
2012,09,14,07,55,14.10
2012,09,14,07,56,14.10
2012,09,14,07,57,14.10
2012,09,14,07,58,14.20
2012,09,14,07,59,14.20
2012,09,14,08,00,14.20
2012,09,14,08,01,14.30
2012,09,14,08,02,14.30
2012,09,14,08,03,14.30
2012,09,14,08,04,14.30
2012,09,14,08,05,14.40
2012,09,14,08,06,14.40
2012,09,14,08,07,14.40
2012,09,14,08,08,14.50
2012,09,14,08,09,14.50
2012,09,14,08,10,14.60
2012,09,14,08,11,14.60
2012,09,14,08,12,14.60
2012,09,14,08,13,14.70
2012,09,14,08,14,14.70
2012,09,14,08,15,14.70
2012,09,14,08,16,14.80
2012,09,14,08,17,14.80
2012,09,14,08,18,14.80
2012,09,14,08,19,14.90
2012,09,14,08,20,14.90
2012,09,14,08,21,15.00
2012,09,14,08,22,15.00
2012,09,14,08,23,15.00
2012,09,14,08,24,15.00
2012,09,14,08,25,15.00
2012,09,14,08,26,15.00
2012,09,14,08,27,15.00
2012,09,14,08,28,15.00
2012,09,14,08,29,15.00
2012,09,14,08,30,15.00
2012,09,14,08,31,15.00
2012,09,14,08,32,15.00
2012,09,14,08,33,15.00
2012,09,14,08,34,15.00
2012,09,14,08,35,15.10
2012,09,14,08,36,15.10
2012,09,14,08,37,15.10
2012,09,14,08,38,15.10
2012,09,14,08,39,15.10
2012,09,14,08,40,15.20
2012,09,14,08,41,15.20
2012,09,14,08,42,15.30
2012,09,14,08,43,15.30
2012,09,14,08,44,15.30
2012,09,14,08,45,15.40
2012,09,14,08,46,15.40
2012,09,14,08,47,15.40
2012,09,14,08,48,15.40
2012,09,14,08,49,15.40
2012,09,14,08,50,15.40
2012,09,14,08,51,15.40
2012,09,14,08,52,15.40
2012,09,14,08,53,15.50
2012,09,14,08,54,15.50
2012,09,14,08,55,15.60
2012,09,14,08,56,15.60
2012,09,14,08,57,15.60
2012,09,14,08,58,15.70
2012,09,14,08,59,15.70
2012,09,14,09,00,15.70
2012,09,14,09,01,15.80
2012,09,14,09,02,15.80
2012,09,14,09,03,15.80
2012,09,14,09,04,15.90
2012,09,14,09,05,15.90
2012,09,14,09,06,16.00
2012,09,14,09,07,16.00
2012,09,14,09,08,16.10
2012,09,14,09,09,16.10
2012,09,14,09,10,16.20
2012,09,14,09,11,16.30
2012,09,14,09,12,16.40
2012,09,14,09,13,16.40
2012,09,14,09,14,16.40
2012,09,14,09,15,16.40
2012,09,14,09,16,16.30
2012,09,14,09,17,16.30
2012,09,14,09,18,16.30
2012,09,14,09,19,16.30
2012,09,14,09,20,16.30
2012,09,14,09,21,16.30
2012,09,14,09,22,16.30
2012,09,14,09,23,16.30
2012,09,14,09,24,16.30
2012,09,14,09,25,16.30
2012,09,14,09,26,16.30
2012,09,14,09,27,16.30
2012,09,14,09,28,16.30
2012,09,14,09,29,16.30
2012,09,14,09,30,16.40
2012,09,14,09,31,16.40
2012,09,14,09,32,16.40
2012,09,14,09,33,16.40
2012,09,14,09,34,16.40
2012,09,14,09,35,16.50
2012,09,14,09,36,16.50
2012,09,14,09,37,16.50
2012,09,14,09,38,16.60
2012,09,14,09,39,16.60
2012,09,14,09,40,16.60
2012,09,14,09,41,16.60
2012,09,14,09,42,16.60
2012,09,14,09,43,16.60
2012,09,14,09,44,16.60
2012,09,14,09,45,16.70
2012,09,14,09,46,16.70
2012,09,14,09,47,16.70
2012,09,14,09,48,16.70
2012,09,14,09,49,16.60
2012,09,14,09,50,16.60
2012,09,14,09,51,16.60
2012,09,14,09,52,16.70
2012,09,14,09,53,16.70
2012,09,14,09,54,16.70
2012,09,14,09,55,16.70
2012,09,14,09,56,16.70
2012,09,14,09,57,16.70
2012,09,14,09,58,16.80
2012,09,14,09,59,16.80
2012,09,14,10,00,16.80
2012,09,14,10,01,16.80
2012,09,14,10,02,16.80
2012,09,14,10,03,16.80
2012,09,14,10,04,16.80
2012,09,14,10,05,16.80
2012,09,14,10,06,16.90
2012,09,14,10,07,16.90
2012,09,14,10,08,17.00
2012,09,14,10,09,17.10
2012,09,14,10,10,17.10
2012,09,14,10,11,17.10
2012,09,14,10,12,17.10
2012,09,14,10,13,17.10
2012,09,14,10,14,17.20
2012,09,14,10,15,17.20
2012,09,14,10,16,17.20
2012,09,14,10,17,17.30
2012,09,14,10,18,17.30
2012,09,14,10,19,17.30
2012,09,14,10,20,17.30
2012,09,14,10,21,17.30
2012,09,14,10,22,17.40
2012,09,14,10,23,17.40
2012,09,14,10,24,17.50
2012,09,14,10,25,17.50
2012,09,14,10,26,17.50
2012,09,14,10,27,17.50
2012,09,14,10,28,17.40
2012,09,14,10,29,17.30
2012,09,14,10,30,17.20
2012,09,14,10,31,17.20
2012,09,14,10,32,17.30
2012,09,14,10,33,17.30
2012,09,14,10,34,17.30
2012,09,14,10,35,17.30
2012,09,14,10,36,17.40
2012,09,14,10,37,17.40
2012,09,14,10,38,17.40
2012,09,14,10,39,17.30
2012,09,14,10,40,17.30
2012,09,14,10,41,17.30
2012,09,14,10,42,17.30
2012,09,14,10,43,17.30
2012,09,14,10,44,17.30
2012,09,14,10,45,17.40
2012,09,14,10,46,17.40
2012,09,14,10,47,17.40
2012,09,14,10,48,17.40
2012,09,14,10,49,17.40
2012,09,14,10,50,17.40
2012,09,14,10,51,17.40
2012,09,14,10,52,17.40
2012,09,14,10,53,17.40
2012,09,14,10,54,17.40
2012,09,14,10,55,17.30
2012,09,14,10,56,17.30
2012,09,14,10,57,17.30
2012,09,14,10,58,17.30
2012,09,14,10,59,17.30
2012,09,14,11,00,17.40
2012,09,14,11,01,17.40
2012,09,14,11,02,17.40
2012,09,14,11,03,17.40
2012,09,14,11,04,17.40
2012,09,14,11,05,17.40
2012,09,14,11,06,17.40
2012,09,14,11,07,17.30
2012,09,14,11,08,17.40
2012,09,14,11,09,17.40
2012,09,14,11,10,17.40
2012,09,14,11,11,17.40
2012,09,14,11,12,17.40
2012,09,14,11,13,17.40
2012,09,14,11,14,17.40
2012,09,14,11,15,17.50
2012,09,14,11,16,17.50
2012,09,14,11,17,17.50
2012,09,14,11,18,17.60
2012,09,14,11,19,17.60
2012,09,14,11,20,17.70
2012,09,14,11,21,17.80
2012,09,14,11,22,17.90
2012,09,14,11,23,18.00
2012,09,14,11,24,18.00
2012,09,14,11,25,18.10
2012,09,14,11,26,18.10
2012,09,14,11,27,18.20
2012,09,14,11,28,18.30
2012,09,14,11,29,18.40
2012,09,14,11,30,18.50
2012,09,14,11,31,18.60
2012,09,14,11,32,18.70
2012,09,14,11,33,18.80
2012,09,14,11,34,18.80
2012,09,14,11,35,18.90
2012,09,14,11,36,18.90
2012,09,14,11,37,18.90
2012,09,14,11,38,18.90
2012,09,14,11,39,19.00
2012,09,14,11,40,19.00
2012,09,14,11,41,18.90
2012,09,14,11,42,18.90
2012,09,14,11,43,18.90
2012,09,14,11,44,18.90
2012,09,14,11,45,18.80
2012,09,14,11,46,18.90
2012,09,14,11,47,18.90
2012,09,14,11,48,18.80
2012,09,14,11,49,18.80
2012,09,14,11,50,18.80
2012,09,14,11,51,18.80
2012,09,14,11,52,18.80
2012,09,14,11,53,18.90
2012,09,14,11,54,18.90
2012,09,14,11,55,18.90
2012,09,14,11,56,19.00
2012,09,14,11,57,19.00
2012,09,14,11,58,19.00
2012,09,14,11,59,19.00
2012,09,14,12,00,18.90
2012,09,14,12,01,18.90
2012,09,14,12,02,18.80
2012,09,14,12,03,18.80
2012,09,14,12,04,18.80
2012,09,14,12,05,18.70
2012,09,14,12,06,18.70
2012,09,14,12,07,18.70
2012,09,14,12,08,18.70
2012,09,14,12,09,18.70
2012,09,14,12,10,18.60
2012,09,14,12,11,18.60
2012,09,14,12,12,18.60
2012,09,14,12,13,18.60
2012,09,14,12,14,18.70
2012,09,14,12,15,18.80
2012,09,14,12,16,18.90
2012,09,14,12,17,19.00
2012,09,14,12,18,19.10
2012,09,14,12,19,19.10
2012,09,14,12,20,19.10
2012,09,14,12,21,19.10
2012,09,14,12,22,19.10
2012,09,14,12,23,19.20
2012,09,14,12,24,19.20
2012,09,14,12,25,19.20
2012,09,14,12,26,19.20
2012,09,14,12,27,19.20
2012,09,14,12,28,19.30
2012,09,14,12,29,19.30
2012,09,14,12,30,19.30
2012,09,14,12,31,19.30
2012,09,14,12,32,19.30
2012,09,14,12,33,19.30
2012,09,14,12,34,19.30
2012,09,14,12,35,19.30
2012,09,14,12,36,19.20
2012,09,14,12,37,19.00
2012,09,14,12,38,19.00
2012,09,14,12,39,18.90
2012,09,14,12,40,18.90
2012,09,14,12,41,18.90
2012,09,14,12,42,18.90
2012,09,14,12,43,18.90
2012,09,14,12,44,18.80
2012,09,14,12,45,18.80
2012,09,14,12,46,18.70
2012,09,14,12,47,18.70
2012,09,14,12,48,18.80
2012,09,14,12,49,18.80
2012,09,14,12,50,18.80
2012,09,14,12,51,18.80
2012,09,14,12,52,18.90
2012,09,14,12,53,18.90
2012,09,14,12,54,19.00
2012,09,14,12,55,19.10
2012,09,14,12,56,19.10
2012,09,14,12,57,19.10
2012,09,14,12,58,19.10
2012,09,14,12,59,19.20
2012,09,14,13,00,19.20
2012,09,14,13,01,19.30
2012,09,14,13,02,19.40
2012,09,14,13,03,19.40
2012,09,14,13,04,19.40
2012,09,14,13,05,19.50
2012,09,14,13,06,19.60
2012,09,14,13,07,19.60
2012,09,14,13,08,19.60
2012,09,14,13,09,19.60
2012,09,14,13,10,19.60
2012,09,14,13,11,19.60
2012,09,14,13,12,19.60
2012,09,14,13,13,19.50
2012,09,14,13,14,19.50
2012,09,14,13,15,19.50
2012,09,14,13,16,19.50
2012,09,14,13,17,19.40
2012,09,14,13,18,19.40
2012,09,14,13,19,19.40
2012,09,14,13,20,19.40
2012,09,14,13,21,19.50
2012,09,14,13,22,19.50
2012,09,14,13,23,19.60
2012,09,14,13,24,19.60
2012,09,14,13,25,19.60
2012,09,14,13,26,19.70
2012,09,14,13,27,19.70
2012,09,14,13,28,19.70
2012,09,14,13,29,19.70
2012,09,14,13,30,19.70
2012,09,14,13,31,19.60
2012,09,14,13,32,19.50
2012,09,14,13,33,19.40
2012,09,14,13,34,19.40
2012,09,14,13,35,19.50
2012,09,14,13,36,19.60
2012,09,14,13,37,19.60
2012,09,14,13,38,19.70
2012,09,14,13,39,19.70
2012,09,14,13,40,19.70
2012,09,14,13,41,19.70
2012,09,14,13,42,19.70
2012,09,14,13,43,19.70
2012,09,14,13,44,19.80
2012,09,14,13,45,19.80
2012,09,14,13,46,19.90
2012,09,14,13,47,19.90
2012,09,14,13,48,20.00
2012,09,14,13,49,20.00
2012,09,14,13,50,20.10
2012,09,14,13,51,20.00
2012,09,14,13,52,20.00
2012,09,14,13,53,20.00
2012,09,14,13,54,20.00
2012,09,14,13,55,20.10
2012,09,14,13,56,20.20
2012,09,14,13,57,20.20
2012,09,14,13,58,20.20
2012,09,14,13,59,20.30
2012,09,14,14,00,20.30
2012,09,14,14,01,20.40
2012,09,14,14,02,20.60
2012,09,14,14,03,20.70
2012,09,14,14,04,20.70
2012,09,14,14,05,20.70
2012,09,14,14,06,20.70
2012,09,14,14,07,20.80
2012,09,14,14,08,20.80
2012,09,14,14,09,20.90
2012,09,14,14,10,20.90
2012,09,14,14,11,20.90
2012,09,14,14,12,20.90
2012,09,14,14,13,21.00
2012,09,14,14,14,21.00
2012,09,14,14,15,21.00
2012,09,14,14,16,21.10
2012,09,14,14,17,21.20
2012,09,14,14,18,21.30
2012,09,14,14,19,21.30
2012,09,14,14,20,21.20
2012,09,14,14,21,21.20
2012,09,14,14,22,21.10
2012,09,14,14,23,21.10
2012,09,14,14,24,21.10
2012,09,14,14,25,21.10
2012,09,14,14,26,21.00
2012,09,14,14,27,20.90
2012,09,14,14,28,20.90
2012,09,14,14,29,20.80
2012,09,14,14,30,20.70
2012,09,14,14,31,20.70
2012,09,14,14,32,20.60
2012,09,14,14,33,20.70
2012,09,14,14,34,20.70
2012,09,14,14,35,20.60
2012,09,14,14,36,20.60
2012,09,14,14,37,20.60
2012,09,14,14,38,20.50
2012,09,14,14,39,20.60
2012,09,14,14,40,20.60
2012,09,14,14,41,20.60
2012,09,14,14,42,20.60
2012,09,14,14,43,20.60
2012,09,14,14,44,20.70
2012,09,14,14,45,20.80
2012,09,14,14,46,20.80
2012,09,14,14,47,20.90
2012,09,14,14,48,20.90
2012,09,14,14,49,20.90
2012,09,14,14,50,20.90
2012,09,14,14,51,20.90
2012,09,14,14,52,20.90
2012,09,14,14,53,20.90
2012,09,14,14,54,20.90
2012,09,14,14,55,20.90
2012,09,14,14,56,20.90
2012,09,14,14,57,20.90
2012,09,14,14,58,21.00
2012,09,14,14,59,21.00
2012,09,14,15,00,21.10
2012,09,14,15,01,21.10
2012,09,14,15,02,21.00
2012,09,14,15,03,21.00
2012,09,14,15,04,21.00
2012,09,14,15,05,20.90
2012,09,14,15,06,20.90
2012,09,14,15,07,20.90
2012,09,14,15,08,20.90
2012,09,14,15,09,20.80
2012,09,14,15,10,20.80
2012,09,14,15,11,20.80
2012,09,14,15,12,20.80
2012,09,14,15,13,20.90
2012,09,14,15,14,20.90
2012,09,14,15,15,21.00
2012,09,14,15,16,21.10
2012,09,14,15,17,21.10
2012,09,14,15,18,21.10
2012,09,14,15,19,21.10
2012,09,14,15,20,21.10
2012,09,14,15,21,21.00
2012,09,14,15,22,21.00
2012,09,14,15,23,21.00
2012,09,14,15,24,21.00
2012,09,14,15,25,21.10
2012,09,14,15,26,21.10
2012,09,14,15,27,21.20
2012,09,14,15,28,21.30
2012,09,14,15,29,21.30
2012,09,14,15,30,21.30
2012,09,14,15,31,21.30
2012,09,14,15,32,21.40
2012,09,14,15,33,21.40
2012,09,14,15,34,21.40
2012,09,14,15,35,21.50
2012,09,14,15,36,21.60
2012,09,14,15,37,21.60
2012,09,14,15,38,21.70
2012,09,14,15,39,21.70
2012,09,14,15,40,21.70
2012,09,14,15,41,21.70
2012,09,14,15,42,21.70
2012,09,14,15,43,21.60
2012,09,14,15,44,21.70
2012,09,14,15,45,21.70
2012,09,14,15,46,21.70
2012,09,14,15,47,21.70
2012,09,14,15,48,21.70
2012,09,14,15,49,21.80
2012,09,14,15,50,21.80
2012,09,14,15,51,21.80
2012,09,14,15,52,21.80
2012,09,14,15,53,21.80
2012,09,14,15,54,21.90
2012,09,14,15,55,21.90
2012,09,14,15,56,21.80
2012,09,14,15,57,21.80
2012,09,14,15,58,21.90
2012,09,14,15,59,21.90
2012,09,14,16,00,22.00
2012,09,14,16,01,22.00
2012,09,14,16,02,22.10
2012,09,14,16,03,22.10
2012,09,14,16,04,22.20
2012,09,14,16,05,22.20
2012,09,14,16,06,22.20
2012,09,14,16,07,22.30
2012,09,14,16,08,22.30
2012,09,14,16,09,22.30
2012,09,14,16,10,22.30
2012,09,14,16,11,22.30
2012,09,14,16,12,22.20
2012,09,14,16,13,22.10
2012,09,14,16,14,22.00
2012,09,14,16,15,21.90
2012,09,14,16,16,21.80
2012,09,14,16,17,21.80
2012,09,14,16,18,21.80
2012,09,14,16,19,21.70
2012,09,14,16,20,21.70
2012,09,14,16,21,21.70
2012,09,14,16,22,21.70
2012,09,14,16,23,21.70
2012,09,14,16,24,21.70
2012,09,14,16,25,21.70
2012,09,14,16,26,21.70
2012,09,14,16,27,21.70
2012,09,14,16,28,21.70
2012,09,14,16,29,21.60
2012,09,14,16,30,21.50
2012,09,14,16,31,21.40
2012,09,14,16,32,21.40
2012,09,14,16,33,21.40
2012,09,14,16,34,21.30
2012,09,14,16,35,21.30
2012,09,14,16,36,21.30
2012,09,14,16,37,21.30
2012,09,14,16,38,21.30
2012,09,14,16,39,21.30
2012,09,14,16,40,21.30
2012,09,14,16,41,21.40
2012,09,14,16,42,21.40
2012,09,14,16,43,21.50
2012,09,14,16,44,21.60
2012,09,14,16,45,21.70
2012,09,14,16,46,21.70
2012,09,14,16,47,21.80
2012,09,14,16,48,21.80
2012,09,14,16,49,21.80
2012,09,14,16,50,21.80
2012,09,14,16,51,21.90
2012,09,14,16,52,21.90
2012,09,14,16,53,21.90
2012,09,14,16,54,21.90
2012,09,14,16,55,22.00
2012,09,14,16,56,22.00
2012,09,14,16,57,22.00
2012,09,14,16,58,21.90
2012,09,14,16,59,21.90
2012,09,14,17,00,21.90
2012,09,14,17,01,21.90
2012,09,14,17,02,21.90
2012,09,14,17,03,21.90
2012,09,14,17,04,21.90
2012,09,14,17,05,21.90
2012,09,14,17,06,21.90
2012,09,14,17,07,21.90
2012,09,14,17,08,21.90
2012,09,14,17,09,21.90
2012,09,14,17,10,21.80
2012,09,14,17,11,21.80
2012,09,14,17,12,21.80
2012,09,14,17,13,21.80
2012,09,14,17,14,21.80
2012,09,14,17,15,21.80
2012,09,14,17,16,21.70
2012,09,14,17,17,21.60
2012,09,14,17,18,21.60
2012,09,14,17,19,21.50